DW2149 Weather Reports


Display with metric or nautical units.
time (UTC)temp
F
wind
direction
speed
MPH
gust
MPH
rain 1hr
in
rain 24hr
in
rain mn
in
humidity
%
barometer
mb
20260506210716 69 294 1.0 6.0 0.00 0.00 0.00 61 1018.8
20260506210514 69 218 1.0 6.0 0.00 0.00 0.00 60 1018.7
20260506210312 68 269 1.0 6.0 0.00 0.00 0.00 61 1018.9
20260506210101 68 195 0.0 5.0 0.00 0.00 0.00 62 1018.8
20260506205848 69 225 0.0 5.0 0.00 0.00 0.00 60 1018.8
20260506205642 68 275 0.0 1.0 0.00 0.00 0.00 64 1018.9
20260506205432 68 275 0.0 2.0 0.00 0.00 0.00 62 1018.9
20260506205219 68 275 0.0 2.0 0.00 0.00 0.00 60 1018.9
20260506205012 68 274 0.0 5.0 0.00 0.00 0.00 60 1018.9
20260506204804 68 274 1.0 5.0 0.00 0.00 0.00 60 1019.0
20260506204412 68 190 1.0 6.0 0.00 0.00 0.00 61 1019.0
20260506204205 67 217 2.0 6.0 0.00 0.00 0.00 61 1019.0
20260506203956 67 260 2.0 6.0 0.00 0.00 0.00 62 1019.1
20260506203753 67 351 1.0 6.0 0.00 0.00 0.00 61 1019.1
20260506203404 67 276 2.0 8.0 0.00 0.00 0.00 61 1019.1
20260506203201 67 294 1.0 8.0 0.00 0.00 0.00 61 1019.1
20260506202952 66 190 2.0 8.0 0.00 0.00 0.00 62 1019.1
20260506202740 66 229 2.0 8.0 0.00 0.00 0.00 61 1019.2
20260506202531 66 331 3.0 8.0 0.00 0.00 0.00 61 1019.2
20260506202319 66 200 2.0 8.0 0.00 0.00 0.00 61 1019.2
20260506202115 66 194 2.0 8.0 0.00 0.00 0.00 61 1019.2
20260506201906 67 157 2.0 8.0 0.00 0.00 0.00 61 1019.3
20260506201655 66 217 1.0 8.0 0.00 0.00 0.00 61 1019.2
20260506201446 67 292 2.0 6.0 0.00 0.00 0.00 59 1019.2
20260506201239 67 190 1.0 5.0 0.00 0.00 0.00 61 1019.3
20260506201026 67 276 1.0 5.0 0.00 0.00 0.00 62 1019.4
20260506200636 67 179 1.0 6.0 0.00 0.00 0.00 61 1019.3
20260506200425 66 196 1.0 6.0 0.00 0.00 0.00 61 1019.4
20260506200218 66 194 1.0 6.0 0.00 0.00 0.00 62 1019.4
20260506195831 66 200 0.0 6.0 0.00 0.00 0.00 61 1019.3
20260506195619 67 251 0.0 6.0 0.00 0.00 0.00 59 1019.4
20260506195414 66 210 1.0 6.0 0.00 0.00 0.00 62 1019.4
20260506195207 66 200 1.0 6.0 0.00 0.00 0.00 62 1019.4
20260506194959 66 282 1.0 6.0 0.00 0.00 0.00 61 1019.4
20260506194748 66 283 1.0 6.0 0.00 0.00 0.00 58 1019.5
20260506194536 66 282 0.0 6.0 0.00 0.00 0.00 63 1019.4
20260506194331 66 269 0.0 6.0 0.00 0.00 0.00 60 1019.5
20260506194129 66 268 0.0 6.0 0.00 0.00 0.00 60 1019.6
20260506193926 66 257 0.0 5.0 0.00 0.00 0.00 61 1019.5
20260506193715 66 258 1.0 5.0 0.00 0.00 0.00 60 1019.5
20260506193506 66 260 1.0 4.0 0.00 0.00 0.00 59 1019.5
20260506193257 66 261 1.0 4.0 0.00 0.00 0.00 61 1019.6
20260506193054 66 259 1.0 4.0 0.00 0.00 0.00 61 1019.6
20260506192848 66 232 0.0 4.0 0.00 0.00 0.00 62 1019.6
20260506192641 65 226 0.0 4.0 0.00 0.00 0.00 63 1019.6
20260506192255 65 211 1.0 0.0 0.00 0.00 0.00 64 1019.6
20260506192044 64 215 1.0 5.0 0.00 0.00 0.00 62 1019.8
20260506191836 64 219 1.0 5.0 0.00 0.00 0.00 62 1019.9
20260506191624 64 247 1.0 4.0 0.00 0.00 0.00 62 1019.9
20260506191414 64 227 0.0 3.0 0.00 0.00 0.00 63 1019.9
20260506191212 64 227 1.0 5.0 0.00 0.00 0.00 62 1019.8
20260506190816 64 285 1.0 5.0 0.00 0.00 0.00 61 1020.0
20260506190609 64 265 1.0 5.0 0.00 0.00 0.00 64 1019.9
20260506190358 64 177 1.0 5.0 0.00 0.00 0.00 64 1020.0
20260506190148 64 208 1.0 5.0 0.00 0.00 0.00 63 1019.9
20260506185802 63 167 1.0 5.0 0.00 0.00 0.00 64 1020.0
20260506185408 64 294 1.0 5.0 0.00 0.00 0.00 65 1019.9
20260506185206 63 294 0.0 1.0 0.00 0.00 0.00 64 1020.0
20260506185000 63 296 1.0 6.0 0.00 0.00 0.00 63 1020.0
20260506184758 63 190 1.0 6.0 0.00 0.00 0.00 65 1020.0
20260506184551 63 216 1.0 6.0 0.00 0.00 0.00 65 1020.0
20260506184343 62 202 1.0 6.0 0.00 0.00 0.00 65 1020.0
20260506183948 62 211 1.0 6.0 0.00 0.00 0.00 66 1020.1
20260506183551 62 205 1.0 5.0 0.00 0.00 0.00 67 1020.1
20260506183344 62 205 1.0 5.0 0.00 0.00 0.00 67 1020.1
20260506183133 62 205 1.0 5.0 0.00 0.00 0.00 65 1020.1
20260506182923 62 201 1.0 5.0 0.00 0.00 0.00 64 1020.1
20260506182530 62 254 0.0 5.0 0.00 0.00 0.00 67 1020.2
20260506182325 62 254 0.0 5.0 0.00 0.00 0.00 65 1020.2
20260506182118 62 285 1.0 5.0 0.00 0.00 0.00 66 1020.2
20260506181913 61 287 0.0 5.0 0.00 0.00 0.00 68 1020.1
20260506181701 61 289 1.0 5.0 0.00 0.00 0.00 66 1020.1
20260506181449 61 288 1.0 5.0 0.00 0.00 0.00 65 1020.1
20260506181239 61 288 1.0 5.0 0.00 0.00 0.00 65 1020.2
20260506181031 61 288 0.0 5.0 0.00 0.00 0.00 67 1020.2
20260506180638 60 247 0.0 4.0 0.00 0.00 0.00 69 1020.1
20260506180431 60 279 0.0 4.0 0.00 0.00 0.00 68 1020.1
20260506180220 60 208 0.0 3.0 0.00 0.00 0.00 70 1020.1
20260506180012 59 208 0.0 3.0 0.00 0.00 0.00 70 1020.2
20260506175806 59 208 0.0 3.0 0.00 0.00 0.00 69 1020.2
20260506175603 59 209 0.0 0.0 0.00 0.00 0.00 70 1020.2
20260506175356 59 209 0.0 4.0 0.00 0.00 0.00 70 1020.2
20260506175150 59 209 0.0 4.0 0.00 0.00 0.00 69 1020.2
20260506174941 58 180 0.0 3.0 0.00 0.00 0.00 70 1020.2
20260506174737 58 180 0.0 0.0 0.00 0.00 0.00 70 1020.2
20260506174531 58 180 0.0 5.0 0.00 0.00 0.00 72 1020.2
20260506174327 58 185 0.0 3.0 0.00 0.00 0.00 73 1020.1
20260506174114 58 216 0.0 1.0 0.00 0.00 0.00 72 1020.1
20260506173905 58 221 0.0 3.0 0.00 0.00 0.00 72 1020.1
20260506173652 58 221 0.0 3.0 0.00 0.00 0.00 72 1020.1
20260506173440 58 221 0.0 3.0 0.00 0.00 0.00 73 1020.1
20260506173231 57 213 0.0 2.0 0.00 0.00 0.00 74 1020.0
20260506173021 57 213 0.0 0.0 0.00 0.00 0.00 74 1020.0
20260506172816 57 213 0.0 3.0 0.00 0.00 0.00 75 1020.0
20260506172604 56 213 0.0 3.0 0.00 0.00 0.00 75 1020.0
20260506172355 56 211 0.0 4.0 0.00 0.00 0.00 75 1020.0
20260506172147 56 211 0.0 4.0 0.00 0.00 0.00 75 1020.0
20260506171939 56 224 0.0 4.0 0.00 0.00 0.00 76 1020.0
20260506171726 56 224 0.0 4.0 0.00 0.00 0.00 77 1020.0
20260506171520 56 158 0.0 0.0 0.00 0.00 0.00 77 1020.0
20260506171124 55 159 0.0 2.0 0.00 0.00 0.00 79 1020.1
20260506170913 55 104 0.0 4.0 0.00 0.00 0.00 81 1020.0
20260506170706 55 104 0.0 4.0 0.00 0.00 0.00 81 1020.0
20260506170132 53 243 0.0 4.0 0.00 0.00 0.00 87 1020.0
20260506165922 53 190 0.0 3.0 0.00 0.00 0.00 88 1020.1
20260506165345 52 231 0.0 0.0 0.00 0.00 0.00 90 1020.1
20260506165139 51 231 0.0 0.0 0.00 0.00 0.00 90 1020.1
20260506164936 51 231 0.0 0.0 0.00 0.00 0.00 90 1020.1
20260506164725 51 231 0.0 0.0 0.00 0.00 0.00 90 1020.2
20260506164331 50 231 0.0 0.0 0.00 0.00 0.00 91 1020.1
20260506164128 50 231 0.0 4.0 0.00 0.00 0.00 91 1020.1
20260506163922 50 231 0.0 4.0 0.00 0.00 0.00 91 1020.2
20260506163714 50 231 0.0 4.0 0.00 0.00 0.00 91 1020.2
20260506163321 49 232 0.0 4.0 0.00 0.00 0.00 92 1020.2
20260506163119 49 232 0.0 2.0 0.00 0.00 0.00 92 1020.2
20260506162907 49 232 0.0 2.0 0.00 0.00 0.00 92 1020.2
20260506162513 49 232 0.0 2.0 0.00 0.00 0.00 92 1020.3
20260506162306 49 232 0.0 0.0 0.00 0.00 0.00 92 1020.3
20260506162051 48 232 0.0 4.0 0.00 0.00 0.00 92 1020.3
20260506161839 48 232 0.0 4.0 0.00 0.00 0.00 92 1020.3
20260506161636 47 232 0.0 4.0 0.00 0.00 0.00 92 1020.3
20260506161239 47 239 0.0 2.0 0.00 0.00 0.00 91 1020.3
20260506160848 46 239 0.0 0.0 0.00 0.00 0.00 92 1020.3
20260506160639 46 239 0.0 2.0 0.00 0.00 0.00 92 1020.4
20260506160432 46 239 0.0 0.0 0.00 0.00 0.00 91 1020.3
20260506160037 46 239 0.0 0.0 0.00 0.00 0.00 91 1020.3
20260506155831 46 239 0.0 1.0 0.00 0.00 0.00 91 1020.3
20260506155625 45 239 0.0 0.0 0.00 0.00 0.00 91 1020.4
20260506155415 45 239 0.0 0.0 0.00 0.00 0.00 91 1020.4
20260506155204 45 239 0.0 0.0 0.00 0.00 0.00 91 1020.4
20260506154952 45 239 0.0 0.0 0.00 0.00 0.00 91 1020.4
20260506154743 45 239 0.0 0.0 0.00 0.00 0.00 91 1020.4
20260506154354 44 239 0.0 0.0 0.00 0.00 0.00 91 1020.4
20260506154142 44 239 0.0 0.0 0.00 0.00 0.00 91 1020.5
20260506153930 44 239 0.0 0.0 0.00 0.00 0.00 91 1020.4
20260506153534 43 239 0.0 0.0 0.00 0.00 0.00 91 1020.4
20260506153330 43 239 0.0 0.0 0.00 0.00 0.00 91 1020.4
20260506153119 43 239 0.0 0.0 0.00 0.00 0.00 91 1020.4
20260506152724 42 239 0.0 0.0 0.00 0.00 0.00 91 1020.3
20260506152515 42 239 0.0 0.0 0.00 0.00 0.00 91 1020.4
20260506152314 42 239 0.0 0.0 0.00 0.00 0.00 90 1020.3
20260506151927 42 239 0.0 0.0 0.00 0.00 0.00 90 1020.3
20260506151529 41 239 0.0 0.0 0.00 0.00 0.00 90 1020.3
20260506151320 41 239 0.0 0.0 0.00 0.00 0.00 90 1020.3
20260506151113 41 239 0.0 0.0 0.00 0.00 0.00 90 1020.3
20260506150717 41 239 0.0 0.0 0.00 0.00 0.00 90 1020.3
20260506150507 41 239 0.0 0.0 0.00 0.00 0.00 90 1020.3
20260506150111 41 239 0.0 0.0 0.00 0.00 0.00 90 1020.3
20260506145907 41 239 0.0 0.0 0.00 0.00 0.00 90 1020.2
20260506145701 41 239 0.0 0.0 0.00 0.00 0.00 90 1020.2
20260506145448 41 239 0.0 0.0 0.00 0.00 0.00 90 1020.3
20260506145235 40 239 0.0 0.0 0.00 0.00 0.00 90 1020.3
20260506145024 40 239 0.0 0.0 0.00 0.00 0.00 90 1020.3
20260506144812 40 239 0.0 0.0 0.00 0.00 0.00 90 1020.4
20260506144600 40 239 0.0 0.0 0.00 0.00 0.00 89 1020.3
20260506144210 40 239 0.0 0.0 0.00 0.00 0.00 90 1020.4
20260506144005 40 239 0.0 0.0 0.00 0.00 0.00 89 1020.3
20260506143755 40 239 0.0 0.0 0.00 0.00 0.00 89 1020.4
20260506143553 40 239 0.0 0.0 0.00 0.00 0.00 89 1020.4
20260506143342 40 239 0.0 0.0 0.00 0.00 0.00 89 1020.3
20260506143138 40 239 0.0 0.0 0.00 0.00 0.00 89 1020.3
20260506142930 40 239 0.0 0.0 0.00 0.00 0.00 89 1020.3
20260506142535 40 239 0.0 0.0 0.00 0.00 0.00 89 1020.2
20260506142331 40 239 0.0 0.0 0.00 0.00 0.00 89 1020.2
20260506142120 40 239 0.0 0.0 0.00 0.00 0.00 89 1020.2
20260506141918 40 239 0.0 0.0 0.00 0.00 0.00 89 1020.2
20260506141710 40 239 0.0 0.0 0.00 0.00 0.00 89 1020.2
20260506141317 40 239 0.0 0.0 0.00 0.00 0.00 89 1020.2
20260506141115 40 239 0.0 0.0 0.00 0.00 0.00 89 1020.2
20260506140905 40 239 0.0 0.0 0.00 0.00 0.00 89 1020.1
20260506140659 40 239 0.0 0.0 0.00 0.00 0.00 89 1020.1
20260506140449 40 239 0.0 0.0 0.00 0.00 0.00 89 1020.2
20260506135914 40 239 0.0 0.0 0.00 0.00 0.00 89 1020.1
20260506135521 40 239 0.0 0.0 0.00 0.00 0.00 89 1020.1
20260506135316 40 239 0.0 0.0 0.00 0.00 0.00 89 1020.1
20260506135113 40 239 0.0 0.0 0.00 0.00 0.00 89 1020.1
20260506134907 40 239 0.0 0.0 0.00 0.00 0.00 89 1020.1
20260506134517 40 239 0.0 0.0 0.00 0.00 0.00 89 1020.1
20260506134312 40 239 0.0 0.0 0.00 0.00 0.00 89 1020.1
20260506134110 40 239 0.0 0.0 0.00 0.00 0.00 89 1020.1
20260506133537 40 239 0.0 0.0 0.00 0.00 0.00 89 1020.0
20260506133329 40 239 0.0 0.0 0.00 0.00 0.00 89 1020.0
20260506133124 40 239 0.0 0.0 0.00 0.00 0.00 89 1019.9
20260506132917 40 239 0.0 0.0 0.00 0.00 0.00 89 1019.9
20260506132705 40 239 0.0 0.0 0.00 0.00 0.00 89 1019.9
20260506132453 40 239 0.0 0.0 0.00 0.00 0.00 89 1019.9
20260506132240 40 239 0.0 0.0 0.00 0.01 0.00 89 1019.8
20260506131709 40 239 0.0 0.0 0.00 0.01 0.00 89 1019.8
20260506131507 40 239 0.0 0.0 0.00 0.01 0.00 89 1019.7
20260506131256 40 239 0.0 0.0 0.00 0.01 0.00 89 1019.7
20260506130904 40 239 0.0 0.0 0.00 0.01 0.00 89 1019.7
20260506130655 40 239 0.0 0.0 0.00 0.01 0.00 88 1019.5
20260506130444 40 239 0.0 0.0 0.00 0.01 0.00 88 1019.5
20260506130241 40 239 0.0 0.0 0.00 0.01 0.00 88 1019.5
20260506130032 40 239 0.0 0.0 0.00 0.01 0.00 88 1019.5
20260506125831 40 239 0.0 0.0 0.00 0.01 0.00 88 1019.5
20260506125625 40 239 0.0 0.0 0.00 0.01 0.00 88 1019.4
20260506125414 40 239 0.0 0.0 0.00 0.01 0.00 88 1019.4
20260506124831 40 239 0.0 0.0 0.00 0.02 0.00 88 1019.4
20260506124626 40 239 0.0 0.0 0.00 0.02 0.00 89 1019.3
20260506124420 40 239 0.0 0.0 0.00 0.02 0.00 89 1019.4
20260506124023 40 239 0.0 0.0 0.00 0.02 0.00 89 1019.3
20260506123815 41 239 0.0 0.0 0.00 0.02 0.00 88 1019.3
20260506123604 41 239 0.0 0.0 0.00 0.02 0.00 88 1019.2
20260506123353 41 239 0.0 0.0 0.00 0.04 0.00 88 1019.2
20260506123142 41 239 0.0 0.0 0.00 0.04 0.00 88 1019.2
20260506122745 41 239 0.0 0.0 0.00 0.04 0.00 88 1019.1
20260506122535 41 239 0.0 0.0 0.00 0.04 0.00 88 1019.1
20260506121955 41 239 0.0 0.0 0.00 0.06 0.00 88 1019.1
20260506121743 41 239 0.0 0.0 0.00 0.06 0.00 88 1019.1
20260506121533 41 239 0.0 0.0 0.00 0.06 0.00 88 1019.1
20260506121331 41 239 0.0 0.0 0.00 0.06 0.00 88 1019.2
20260506121121 41 239 0.0 0.0 0.00 0.06 0.00 88 1019.1
20260506120916 41 239 0.0 0.0 0.00 0.06 0.00 88 1019.1
20260506120708 41 239 0.0 0.0 0.00 0.06 0.00 88 1019.1
20260506115943 41 239 0.0 0.0 0.00 0.07 0.00 88 1018.9
20260506115739 41 239 0.0 0.0 0.00 0.07 0.00 88 1018.9
20260506115528 41 239 0.0 0.0 0.00 0.07 0.00 88 1018.8
20260506115315 41 239 0.0 0.0 0.00 0.07 0.00 88 1018.8
20260506115107 42 239 0.0 0.0 0.00 0.07 0.00 88 1018.8
20260506114905 42 239 0.0 0.0 0.00 0.09 0.00 88 1018.8
20260506114657 42 239 0.0 0.0 0.00 0.09 0.00 88 1018.8
20260506114446 42 239 0.0 0.0 0.00 0.09 0.00 88 1018.8
20260506114241 42 239 0.0 0.0 0.00 0.09 0.00 88 1018.7
20260506114032 42 239 0.0 0.0 0.00 0.09 0.00 88 1018.8
20260506113825 42 239 0.0 0.0 0.00 0.09 0.00 88 1018.8
20260506113613 42 239 0.0 0.0 0.00 0.09 0.00 88 1018.7
20260506113409 42 239 0.0 0.0 0.00 0.09 0.00 88 1018.7
20260506113203 42 239 0.0 0.0 0.00 0.09 0.00 88 1018.8
20260506112952 42 239 0.0 0.0 0.00 0.09 0.00 88 1018.8
20260506112749 42 239 0.0 0.0 0.00 0.09 0.00 88 1018.8
20260506112546 42 239 0.0 0.0 0.00 0.09 0.00 88 1018.8
20260506112342 42 239 0.0 0.0 0.00 0.09 0.00 88 1018.8
20260506112134 42 239 0.0 0.0 0.00 0.09 0.00 88 1018.8
20260506111932 42 239 0.0 0.0 0.00 0.11 0.00 88 1018.8
20260506111724 42 239 0.0 0.0 0.00 0.11 0.00 88 1018.8
20260506111514 43 239 0.0 0.0 0.00 0.11 0.00 88 1018.8
20260506111127 43 239 0.0 0.0 0.00 0.11 0.00 88 1018.8
20260506110917 43 239 0.0 0.0 0.00 0.11 0.00 88 1018.8
20260506110526 43 239 0.0 0.0 0.00 0.11 0.00 88 1018.7
20260506110314 43 239 0.0 0.0 0.00 0.11 0.00 88 1018.7
20260506105850 43 239 0.0 0.0 0.00 0.11 0.00 88 1018.7
20260506105639 43 239 0.0 0.0 0.00 0.11 0.00 88 1018.7
20260506105436 43 239 0.0 0.0 0.00 0.11 0.00 88 1018.7
20260506105225 43 239 0.0 0.0 0.00 0.11 0.00 88 1018.7
20260506105014 43 239 0.0 0.0 0.00 0.11 0.00 88 1018.7
20260506104807 43 239 0.0 0.0 0.00 0.11 0.00 88 1018.6
20260506104601 43 239 0.0 0.0 0.00 0.11 0.00 88 1018.5
20260506104349 44 239 0.0 0.0 0.00 0.11 0.00 88 1018.6
20260506104145 44 239 0.0 0.0 0.00 0.12 0.00 88 1018.7
20260506103937 44 239 0.0 0.0 0.00 0.12 0.00 88 1018.6
20260506103727 44 239 0.0 0.0 0.00 0.12 0.00 88 1018.6
20260506103514 44 239 0.0 0.0 0.00 0.12 0.00 88 1018.6
20260506103121 44 239 0.0 0.0 0.00 0.12 0.00 88 1018.5
20260506102911 44 239 0.0 0.0 0.00 0.12 0.00 88 1018.5
20260506102703 44 239 0.0 0.0 0.00 0.12 0.00 88 1018.5
20260506102455 44 239 0.0 0.0 0.00 0.12 0.00 89 1018.5
20260506102248 44 239 0.0 0.0 0.00 0.12 0.00 89 1018.5
20260506102038 44 239 0.0 0.0 0.00 0.12 0.00 89 1018.5
20260506101829 45 239 0.0 0.0 0.00 0.12 0.00 88 1018.5
20260506101623 45 239 0.0 0.0 0.00 0.12 0.00 88 1018.5
20260506101411 45 239 0.0 0.0 0.00 0.12 0.00 88 1018.5
20260506101205 45 239 0.0 0.0 0.00 0.12 0.00 88 1018.5
20260506101004 45 239 0.0 0.0 0.00 0.12 0.00 89 1018.5
20260506100758 45 239 0.0 0.0 0.00 0.12 0.00 89 1018.5
20260506100554 45 239 0.0 0.0 0.00 0.12 0.00 89 1018.5
20260506100344 45 239 0.0 0.0 0.00 0.12 0.00 89 1018.5
20260506095953 45 239 0.0 0.0 0.00 0.12 0.00 89 1018.6
20260506095742 46 239 0.0 0.0 0.00 0.12 0.00 89 1018.6
20260506095534 46 239 0.0 0.0 0.00 0.12 0.00 89 1018.5
20260506095325 46 239 0.0 0.0 0.00 0.12 0.00 89 1018.6
20260506095117 46 239 0.0 0.0 0.00 0.12 0.00 89 1018.6
20260506094912 46 239 0.0 0.0 0.00 0.12 0.00 89 1018.5
20260506094701 46 239 0.0 0.0 0.00 0.12 0.00 89 1018.4
20260506094313 46 239 0.0 0.0 0.00 0.12 0.00 89 1018.4
20260506094100 46 239 0.0 0.0 0.00 0.12 0.00 89 1018.4
20260506093857 46 239 0.0 0.0 0.00 0.12 0.00 89 1018.3
20260506093653 46 239 0.0 0.0 0.00 0.12 0.00 89 1018.2
20260506093443 47 239 0.0 0.0 0.00 0.12 0.00 89 1018.2
20260506093233 47 239 0.0 0.0 0.00 0.12 0.00 89 1018.2
20260506093026 47 239 0.0 0.0 0.00 0.12 0.00 89 1018.1
20260506092825 47 239 0.0 0.0 0.00 0.12 0.00 89 1018.1
20260506092621 47 239 0.0 0.0 0.00 0.12 0.00 89 1018.1
20260506092408 47 239 0.0 0.0 0.00 0.12 0.00 89 1018.0
20260506092158 47 239 0.0 0.0 0.00 0.12 0.00 89 1017.9
20260506091954 47 239 0.0 0.0 0.00 0.12 0.00 89 1018.0
20260506091744 47 239 0.0 0.0 0.00 0.12 0.00 89 1018.0
20260506091532 47 239 0.0 0.0 0.00 0.12 0.00 89 1017.9
20260506091145 47 239 0.0 0.0 0.00 0.12 0.00 89 1017.9
20260506090752 47 239 0.0 0.0 0.00 0.12 0.00 89 1017.9
20260506090550 47 239 0.0 0.0 0.00 0.12 0.00 89 1017.9
20260506090341 47 239 0.0 0.0 0.00 0.12 0.00 89 1017.9
20260506090131 47 239 0.0 0.0 0.00 0.12 0.00 89 1017.9
20260506085924 47 239 0.0 0.0 0.00 0.12 0.00 89 1018.0
20260506085537 47 239 0.0 0.0 0.00 0.12 0.00 89 1017.9
20260506085333 47 239 0.0 0.0 0.00 0.12 0.00 89 1017.9
20260506084945 47 239 0.0 0.0 0.00 0.12 0.00 89 1018.0
20260506084732 47 239 0.0 0.0 0.00 0.12 0.00 89 1018.0
20260506084521 47 239 0.0 0.0 0.00 0.12 0.00 89 1018.0
20260506084133 47 239 0.0 0.0 0.00 0.12 0.00 89 1018.1
20260506083747 47 239 0.0 0.0 0.00 0.12 0.00 89 1018.2
20260506083539 47 239 0.0 0.0 0.00 0.12 0.00 89 1018.3
20260506082959 47 239 0.0 0.0 0.00 0.12 0.00 89 1018.4
20260506082748 47 239 0.0 0.0 0.00 0.12 0.00 89 1018.5
20260506082546 47 239 0.0 0.0 0.00 0.12 0.00 89 1018.6
20260506082341 47 239 0.0 0.0 0.00 0.12 0.00 89 1018.5
20260506082132 47 239 0.0 0.0 0.00 0.12 0.00 89 1018.5
20260506081928 47 239 0.0 0.0 0.00 0.12 0.00 89 1018.4
20260506081720 47 239 0.0 0.0 0.00 0.12 0.00 89 1018.5
20260506081518 47 239 0.0 0.0 0.00 0.12 0.00 89 1018.5
20260506081314 47 239 0.0 0.0 0.00 0.12 0.00 89 1018.6
20260506081110 47 239 0.0 0.0 0.00 0.12 0.00 89 1018.5
20260506080908 47 239 0.0 0.0 0.00 0.12 0.00 89 1018.4
20260506080658 47 239 0.0 0.0 0.00 0.12 0.00 89 1018.4
20260506080456 47 239 0.0 0.0 0.00 0.12 0.00 89 1018.4
20260506080248 47 239 0.0 0.0 0.00 0.12 0.00 89 1018.4
20260506073430 47 239 0.0 0.0 0.00 0.12 0.00 89 1018.2
20260506073038 47 239 0.0 0.0 0.00 0.12 0.00 89 1018.1
20260506072836 47 239 0.0 0.0 0.00 0.12 0.00 89 1018.1
20260506072631 47 239 0.0 0.0 0.00 0.12 0.00 89 1018.1
20260506072424 47 239 0.0 0.0 0.00 0.12 0.00 89 1018.1
20260506072219 47 239 0.0 0.0 0.00 0.12 0.00 89 1018.0
20260506072008 47 239 0.0 0.0 0.00 0.12 0.00 89 1018.0
20260506071807 47 239 0.0 0.0 0.00 0.12 0.00 89 1018.0
20260506071555 47 239 0.0 0.0 0.00 0.12 0.00 89 1018.0
20260506071352 47 239 0.0 0.0 0.00 0.12 0.00 89 1018.0
20260506071149 47 239 0.0 0.0 0.00 0.12 0.00 89 1017.9
20260506070941 47 239 0.0 0.0 0.00 0.12 0.00 89 1017.8
20260506070729 47 239 0.0 0.0 0.00 0.12 0.00 89 1017.8
20260506070524 47 239 0.0 0.0 0.00 0.12 0.00 89 1017.8
20260506070318 47 239 0.0 0.0 0.00 0.12 0.00 89 1017.8
20260506062353 48 239 0.0 0.0 0.00 0.12 0.12 89 1017.3
20260506062140 48 239 0.0 0.0 0.00 0.12 0.12 89 1017.3
20260506061936 48 239 0.0 0.0 0.00 0.12 0.12 89 1017.3
20260506061724 48 239 0.0 0.0 0.00 0.12 0.12 89 1017.1
20260506061512 48 239 0.0 0.0 0.00 0.12 0.12 89 1017.1
20260506061303 48 239 0.0 0.0 0.00 0.12 0.12 89 1017.3
20260506061056 48 239 0.0 0.0 0.00 0.12 0.12 89 1017.3
20260506060850 48 239 0.0 0.0 0.00 0.12 0.12 89 1017.2
20260506060642 48 239 0.0 0.0 0.00 0.12 0.12 89 1017.1
20260506060439 48 239 0.0 0.0 0.00 0.12 0.12 89 1017.1
20260506060231 48 239 0.0 0.0 0.00 0.12 0.12 88 1017.1
20260506051231 48 239 0.0 0.0 0.00 0.12 0.12 88 1017.0
20260506050841 48 239 0.0 0.0 0.00 0.12 0.12 88 1017.0
20260506050632 48 239 0.0 0.0 0.00 0.12 0.12 88 1017.0
20260506050237 48 239 0.0 0.0 0.00 0.12 0.12 88 1017.0
20260506045058 49 239 0.0 0.0 0.00 0.12 0.12 88 1016.8
20260506044851 49 239 0.0 0.0 0.00 0.12 0.12 88 1016.8
20260506044639 49 239 0.0 0.0 0.00 0.12 0.12 88 1016.8
20260506044430 49 239 0.0 0.0 0.00 0.12 0.12 88 1016.7
20260506044043 49 239 0.0 0.0 0.00 0.12 0.12 88 1016.6
20260506043830 49 239 0.0 0.0 0.00 0.12 0.12 88 1016.6
20260506043619 49 239 0.0 0.0 0.00 0.12 0.12 88 1016.6
20260506043418 49 239 0.0 0.0 0.00 0.12 0.12 88 1016.6
20260506043209 49 239 0.0 0.0 0.00 0.12 0.12 88 1016.6
20260506043005 49 239 0.0 0.0 0.00 0.12 0.12 88 1016.6
20260506042611 49 239 0.0 0.0 0.00 0.12 0.12 88 1016.6
20260506042359 49 239 0.0 0.0 0.00 0.12 0.12 88 1016.5
20260506042157 49 239 0.0 0.0 0.00 0.12 0.12 88 1016.5
20260506041946 49 239 0.0 0.0 0.00 0.12 0.12 88 1016.4
20260506041737 49 239 0.0 0.0 0.00 0.12 0.12 88 1016.4
20260506041525 49 239 0.0 0.0 0.00 0.12 0.12 88 1016.3
20260506041318 49 239 0.0 0.0 0.00 0.12 0.12 88 1016.4
20260506041114 49 239 0.0 0.0 0.00 0.12 0.12 88 1016.3
20260506040912 49 239 0.0 0.0 0.00 0.12 0.12 88 1016.3
20260506040704 49 239 0.0 0.0 0.00 0.12 0.12 88 1016.2
20260506040454 49 239 0.0 0.0 0.00 0.12 0.12 88 1016.2
20260506040243 49 239 0.0 0.0 0.00 0.12 0.12 88 1016.2
20260506040037 49 239 0.0 0.0 0.00 0.12 0.12 88 1016.2
20260506035828 49 239 0.0 0.0 0.00 0.13 0.12 88 1016.1
20260506035626 49 239 0.0 0.0 0.00 0.13 0.12 88 1016.1
20260506035417 49 239 0.0 0.0 0.00 0.13 0.12 87 1016.1
20260506035211 49 239 0.0 0.0 0.00 0.13 0.12 87 1016.0
20260506035004 49 239 0.0 0.0 0.00 0.13 0.12 87 1016.0
20260506034755 49 239 0.0 0.0 0.00 0.13 0.12 87 1016.0
20260506034543 49 239 0.0 0.0 0.00 0.13 0.12 87 1015.9
20260506034340 49 239 0.0 0.0 0.00 0.13 0.12 87 1015.9
20260506033942 49 239 0.0 0.0 0.00 0.13 0.12 87 1015.8
20260506033730 49 239 0.0 0.0 0.00 0.13 0.12 87 1015.8
20260506033337 49 239 0.0 0.0 0.00 0.13 0.12 87 1015.8
20260506033126 49 239 0.0 0.0 0.00 0.13 0.12 87 1015.7
20260506032916 49 239 0.0 0.0 0.00 0.13 0.12 87 1015.7
20260506032709 49 239 0.0 0.0 0.00 0.13 0.12 87 1015.7
20260506032501 49 239 0.0 0.0 0.00 0.13 0.12 87 1015.7
20260506032254 49 239 0.0 0.0 0.00 0.13 0.12 87 1015.7
20260506032049 49 239 0.0 0.0 0.00 0.13 0.12 87 1015.7
20260506031701 49 239 0.0 0.0 0.00 0.13 0.12 87 1015.6
20260506031451 49 239 0.0 0.0 0.00 0.13 0.12 87 1015.6
20260506031250 49 239 0.0 0.0 0.00 0.13 0.12 87 1015.5
20260506031039 50 239 0.0 0.0 0.00 0.13 0.12 87 1015.5
20260506030837 50 239 0.0 0.0 0.00 0.13 0.12 87 1015.5
20260506030633 50 239 0.0 0.0 0.00 0.13 0.12 87 1015.5
20260506030427 50 239 0.0 0.0 0.00 0.13 0.12 87 1015.4
20260506030216 50 239 0.0 0.0 0.00 0.13 0.12 87 1015.4
20260506030013 50 239 0.0 0.0 0.00 0.13 0.12 87 1015.4
20260506025803 50 239 0.0 0.0 0.00 0.13 0.12 87 1015.4
20260506025554 50 239 0.0 0.0 0.00 0.13 0.12 87 1015.4
20260506025351 50 239 0.0 0.0 0.00 0.13 0.12 87 1015.3
20260506025142 50 239 0.0 0.0 0.00 0.13 0.12 87 1015.3
20260506024932 50 239 0.0 0.0 0.00 0.13 0.12 87 1015.3
20260506024724 50 239 0.0 0.0 0.00 0.13 0.12 87 1015.3
20260506024328 50 239 0.0 0.0 0.00 0.13 0.12 87 1015.4
20260506024123 50 239 0.0 0.0 0.00 0.13 0.12 87 1015.3
20260506023916 50 239 0.0 0.0 0.00 0.13 0.12 87 1015.4
20260506023703 50 239 0.0 0.0 0.00 0.13 0.12 87 1015.3
20260506023452 50 239 0.0 0.0 0.00 0.13 0.12 87 1015.4
20260506023100 50 239 0.0 0.0 0.00 0.13 0.12 87 1015.4
20260506022857 50 239 0.0 0.0 0.00 0.13 0.12 87 1015.4
20260506022655 50 239 0.0 0.0 0.00 0.13 0.12 87 1015.4
20260506022453 50 239 0.0 0.0 0.00 0.13 0.12 87 1015.3
20260506022242 50 239 0.0 0.0 0.00 0.13 0.12 87 1015.3
20260506022037 50 239 0.0 0.0 0.00 0.13 0.12 87 1015.3
20260506021832 50 239 0.0 0.0 0.00 0.13 0.12 87 1015.3
20260506021626 50 239 0.0 0.0 0.00 0.13 0.12 87 1015.2
20260506021414 50 239 0.0 0.0 0.00 0.13 0.12 87 1015.2
20260506021212 50 239 0.0 0.0 0.00 0.13 0.12 88 1015.2
20260506021000 50 239 0.0 0.0 0.00 0.13 0.12 88 1015.2
20260506020756 50 239 0.0 0.0 0.00 0.13 0.12 88 1015.2
20260506020549 50 239 0.0 0.0 0.00 0.13 0.12 88 1015.3
20260506020345 50 239 0.0 0.0 0.00 0.13 0.12 88 1015.3
20260506020138 50 239 0.0 0.0 0.00 0.13 0.12 88 1015.3
20260506015932 50 239 0.0 0.0 0.00 0.13 0.12 88 1015.3
20260506015722 50 239 0.0 0.0 0.00 0.13 0.12 88 1015.3
20260506015512 50 239 0.0 0.0 0.00 0.13 0.12 88 1015.3
20260506015310 50 239 0.0 0.0 0.00 0.13 0.12 88 1015.2
20260506015107 50 239 0.0 0.0 0.00 0.13 0.12 88 1015.2
20260506014856 50 239 0.0 0.0 0.00 0.13 0.12 88 1015.2
20260506014645 50 239 0.0 0.0 0.00 0.13 0.12 88 1015.3
20260506014435 50 239 0.0 0.0 0.00 0.13 0.12 88 1015.2
20260506014225 50 239 0.0 0.0 0.00 0.13 0.12 88 1015.2
20260506014016 50 239 0.0 0.0 0.00 0.13 0.12 88 1015.2
20260506013806 50 239 0.0 0.0 0.00 0.13 0.12 88 1015.2
20260506013559 50 239 0.0 0.0 0.00 0.13 0.12 88 1015.2
20260506013354 50 239 0.0 0.0 0.00 0.13 0.12 88 1015.2
20260506013152 50 239 0.0 0.0 0.00 0.13 0.12 88 1015.2
20260506012945 50 239 0.0 0.0 0.00 0.14 0.12 88 1015.2
20260506012738 50 239 0.0 0.0 0.00 0.14 0.12 88 1015.2
20260506012533 49 239 0.0 0.0 0.00 0.14 0.12 88 1015.2
20260506012326 49 239 0.0 0.0 0.00 0.14 0.12 88 1015.2
20260506012113 49 239 0.0 0.0 0.00 0.14 0.12 88 1015.2
20260506011906 49 239 0.0 0.0 0.00 0.14 0.12 88 1015.2
20260506011657 49 239 0.0 0.0 0.00 0.14 0.12 88 1015.2
20260506011445 49 239 0.0 0.0 0.00 0.14 0.12 87 1015.2
20260506011233 49 239 0.0 0.0 0.00 0.14 0.12 87 1015.2
20260506011028 49 239 0.0 0.0 0.00 0.14 0.12 88 1015.2
20260506010817 49 239 0.0 0.0 0.00 0.14 0.12 87 1015.2
20260506010609 49 239 0.0 0.0 0.00 0.14 0.12 87 1015.3
20260506010400 49 239 0.0 0.0 0.00 0.14 0.12 88 1015.3
20260506010149 49 239 0.0 0.0 0.00 0.14 0.12 87 1015.3
20260506005944 49 239 0.0 0.0 0.00 0.14 0.12 87 1015.3
20260506005551 49 239 0.0 0.0 0.00 0.14 0.12 87 1015.3
20260506005338 49 239 0.0 0.0 0.00 0.14 0.12 87 1015.4
20260506005132 49 239 0.0 0.0 0.00 0.14 0.12 87 1015.4
20260506004929 49 239 0.0 0.0 0.00 0.14 0.12 87 1015.4
20260506004719 49 239 0.0 0.0 0.00 0.14 0.12 87 1015.4
20260506004516 49 239 0.0 0.0 0.00 0.14 0.12 87 1015.4
20260506004306 49 239 0.0 0.0 0.00 0.14 0.12 87 1015.4
20260506004102 49 239 0.0 0.0 0.00 0.14 0.12 87 1015.4
20260506003857 49 239 0.0 0.0 0.00 0.14 0.12 87 1015.4
20260506003653 49 239 0.0 0.0 0.00 0.14 0.12 87 1015.4
20260506003447 49 239 0.0 0.0 0.00 0.14 0.12 87 1015.5
20260506003237 49 239 0.0 0.0 0.00 0.14 0.12 87 1015.5
20260506002847 49 239 0.0 0.0 0.00 0.14 0.12 87 1015.5
20260506002635 49 239 0.0 0.0 0.00 0.14 0.12 87 1015.4
20260506002431 49 239 0.0 0.0 0.00 0.14 0.12 87 1015.4
20260506002223 49 239 0.0 0.0 0.00 0.14 0.12 87 1015.4
20260506002018 49 239 0.0 0.0 0.00 0.14 0.12 87 1015.4
20260506001814 49 239 0.0 0.0 0.00 0.14 0.12 87 1015.4
20260506001425 49 239 0.0 0.0 0.00 0.14 0.12 87 1015.4
20260506001038 49 239 0.0 0.0 0.00 0.16 0.12 87 1015.4
20260506000830 49 239 0.0 0.0 0.00 0.16 0.12 87 1015.4
20260506000620 49 239 0.0 0.0 0.00 0.16 0.12 87 1015.5
20260506000416 49 239 0.0 0.0 0.00 0.16 0.12 87 1015.4
20260506000204 49 239 0.0 0.0 0.00 0.16 0.12 87 1015.4
20260505235954 49 239 0.0 0.0 0.00 0.16 0.12 87 1015.3
20260505235749 49 239 0.0 0.0 0.00 0.16 0.12 87 1015.3
20260505235403 49 239 0.0 0.0 0.00 0.16 0.12 87 1015.3
20260505235159 49 239 0.0 0.0 0.00 0.16 0.12 87 1015.3
20260505234945 49 239 0.0 0.0 0.00 0.16 0.12 87 1015.3
20260505234740 49 239 0.0 0.0 0.00 0.16 0.12 87 1015.3
20260505234529 49 239 0.0 0.0 0.00 0.16 0.12 87 1015.3
20260505234324 49 239 0.0 0.0 0.00 0.16 0.12 87 1015.3
20260505234121 49 239 0.0 0.0 0.00 0.16 0.12 87 1015.3
20260505233912 49 239 0.0 0.0 0.00 0.16 0.12 87 1015.2
20260505233518 49 239 0.0 0.0 0.00 0.18 0.12 87 1015.3
20260505233312 49 239 0.0 0.0 0.00 0.18 0.12 87 1015.3
20260505233108 49 239 0.0 0.0 0.00 0.18 0.12 87 1015.2
20260505232902 49 239 0.0 0.0 0.00 0.18 0.12 87 1015.2
20260505232701 49 239 0.0 0.0 0.00 0.18 0.12 87 1015.3
20260505232459 49 239 0.0 0.0 0.00 0.18 0.12 87 1015.3
20260505232250 49 239 0.0 0.0 0.00 0.18 0.12 87 1015.3
20260505232039 49 239 0.0 0.0 0.00 0.18 0.12 87 1015.3
20260505231828 49 239 0.0 0.0 0.00 0.19 0.12 87 1015.2
20260505231625 49 239 0.0 0.0 0.00 0.19 0.12 87 1015.3
20260505231236 49 239 0.0 0.0 0.00 0.19 0.12 87 1015.2
20260505231032 49 239 0.0 0.0 0.00 0.19 0.12 87 1015.1
20260505230825 49 239 0.0 0.0 0.00 0.19 0.12 87 1015.1
20260505230620 49 239 0.0 0.0 0.00 0.19 0.12 87 1015.1
20260505230230 49 239 0.0 0.0 0.00 0.19 0.12 87 1015.2
20260505230019 49 239 0.0 0.0 0.00 0.19 0.12 87 1015.2
20260505225631 49 239 0.0 0.0 0.00 0.19 0.12 87 1015.2
20260505225424 49 239 0.0 0.0 0.00 0.19 0.12 87 1015.2
20260505225221 49 239 0.0 0.0 0.00 0.19 0.12 87 1015.2
20260505225013 49 239 0.0 0.0 0.00 0.19 0.12 87 1015.2
20260505224810 49 239 0.0 0.0 0.00 0.19 0.12 87 1015.1
20260505224604 49 239 0.0 0.0 0.00 0.19 0.12 87 1015.2
20260505224359 49 239 0.0 0.0 0.00 0.19 0.12 87 1015.1
20260505223827 49 239 0.0 0.0 0.00 0.21 0.12 87 1015.2
20260505223615 49 239 0.0 0.0 0.00 0.21 0.12 87 1015.2
20260505223403 49 239 0.0 0.0 0.00 0.21 0.12 87 1015.2
20260505223007 49 239 0.0 0.0 0.00 0.21 0.12 87 1015.3
20260505222610 49 239 0.0 0.0 0.00 0.21 0.12 86 1015.3
20260505222401 49 239 0.0 0.0 0.00 0.21 0.12 86 1015.3
20260505222012 49 239 0.0 0.0 0.00 0.23 0.12 86 1015.3
20260505221807 49 239 0.0 0.0 0.00 0.23 0.12 86 1015.2
20260505221601 49 239 0.0 0.0 0.00 0.23 0.12 86 1015.2
20260505221355 49 239 0.0 0.0 0.00 0.23 0.12 86 1015.2
20260505220636 49 239 0.0 0.0 0.00 0.23 0.12 86 1015.2
20260505220249 49 239 0.0 0.0 0.00 0.24 0.12 86 1015.3
20260505220047 49 239 0.0 0.0 0.00 0.24 0.12 86 1015.2
20260505215503 49 239 0.0 0.0 0.00 0.24 0.12 86 1015.2
20260505215256 49 239 0.0 0.0 0.00 0.24 0.12 86 1015.2
20260505215052 49 239 0.0 0.0 0.00 0.24 0.12 86 1015.2
20260505214843 49 239 0.0 2.0 0.00 0.24 0.12 86 1015.2
20260505214449 49 239 0.0 0.0 0.00 0.24 0.12 86 1015.1
20260505214235 49 239 0.0 0.0 0.00 0.24 0.12 86 1015.1
20260505214034 49 239 0.0 0.0 0.00 0.24 0.12 86 1015.1
20260505213825 49 239 0.0 0.0 0.00 0.24 0.12 86 1015.0
20260505213619 49 239 0.0 0.0 0.00 0.24 0.12 86 1015.1
20260505213413 49 239 0.0 0.0 0.00 0.24 0.12 86 1015.1
20260505213200 49 239 0.0 0.0 0.00 0.24 0.12 85 1015.1
20260505212955 49 239 0.0 1.0 0.00 0.24 0.12 85 1015.2
20260505212600 49 239 0.0 0.0 0.00 0.24 0.12 85 1015.1
20260505212354 49 239 0.0 0.0 0.00 0.24 0.12 85 1015.1
20260505211814 49 239 0.0 0.0 0.00 0.24 0.12 85 1015.1
20260505211420 49 239 0.0 1.0 0.00 0.24 0.12 85 1015.1
20260505211218 49 239 0.0 0.0 0.00 0.24 0.12 85 1015.2